Location: Six Mile Lake
(44.9000°N, 79.7170°W)
Time: 13:59:20
(UTC-04:00)

AO-109 - Pass Details

Date: 01 July 2022
Orbit: 470 x 506 km, 60.7° (Epoch: 09 August)

Event Time Altitude Azimuth Distance (km) Brightness Sun altitude
Exits shadow 04:49:10 - 194° (SSW) 1,985 ? -7.3°
Reaches altitude 10° 04:50:05 10° 189° (S) 1,639 ? -7.2°
Maximum altitude 04:53:24 33° 124° (SE) 822 ? -6.8°
Drops below altitude 10° 04:56:48 10° 59° (ENE) 1,671 ? -6.3°
Sets 04:59:06 0° 50° (NE) 2,564 ? -6.0°
